SCP
0 0 0 -0 0 0 0 0 0 0 0 0 0 0 0 0 0 0 0 0 0 0 0 0 0 0 0 0 0 0 0 0 0 0 0 0 0 0 0 0 0 0 0
0 0 0 0 0 0 0 0 0 0 0 0 0 0 -0 0 0 0 0 0 0 0 0 0 0 0 0 0 0 0 0 0 0 0 0 0 0 0 0 0 0 0 -0
0 0 0 0 0 0 0 0 0 0 0 0 -0 0 0 0 0 0 0 0 0 0 0 0 0 0 0 0 0 0 0 0 0 0 0 0 0 0 0 0 0 0 0
0 0 0 0 0 0 0 0 0 0 0 -0 -0 0 0 0 0 0 0 0 0 0 0 0 0 0 0 0 0 0 0 0 0 0 0 0 0 0 -0 -0 -0 0 0
0 0 0 0 0 0 0 0 -0 -0 -0 -0 0 0 0 0 0 0 0 0 0 0 0 0 0 0 0 0 0 0 0 0 0 0 0 0 0 0 0 -0 -0 0 0
0 0 0 0 0 0 0 0 0 0 0 0 0 0 0 0 0 0 0 0 0 0 0 0 0 0 0 0 0 0 0 0 0 0 0 0 0 0 0 0 0 0 0
0 0 0 0 0 0 0 0 0 0 0 0 0 0 0 0 0 0 0 0 0 0 0 0 0 0 0 0 0 0 0 0 0 0 0 0 0 0 -0 0 0 0 0
0 0 0 0 0 0 0 0 0 0 0 0 0 0 0 0 0 0 0 0 0 0 0 0 0 0 0 0 0 0 0 0 0 0 0 0 0 0 -0 -0 -0 0 0
0 0 0 0 0 0 0 0 0 0 0 0 0 0 0 0 0 0 0 0 0 0 0 0 0 0 0 0 0 0 0 0 0 0 0 0 0 0 -0 -0 -0 -0 -0
0 0 0 0 0 0 0 0 0 0 0 0 0 0 0 0 0 0 0 0 0 0 0 0 0 0 0 0 0 0 0 0 0 0 0 0 0 0 0 0 -0 -0 -0
0 0 0 0 0 0 0 0 0 0 0 0 0 0 0 0 0 0 0 0 0 0 0 0 0 0 0 0 0 0 0 0 0 0 0 0 0 0 0 0 0 0 -0
0 0 0 0 0 0 0 0 0 0 0 0 0 0 0 0 0 0 0 0 0 0 0 0 0 0 0 0 0 0 0 0 0 0 0 0 0 0 0 0 0 0 0
0 0 0 0 0 0 0 0 0 0 0 0 0 0 0 0 0 0 0 0 0 0 0 0 0 0 0 0 0 0 0 0 0 0 0 0 0 0 0 0 0 0 0
0 0 0 0 0 0 0 0 0 0 0 0 0 0 0 0 0 0 0 0 0 0 0 0 0 0 0 0 0 0 0 0 0 0 0 0 0 0 0 0 0 0 0
0 0 0 0 0 0 0 0 0 0 0 0 0 0 0 0 0 0 0 0 0 0 0 0 0 0 0 0 0 0 0 0 0 0 0 0 0 0 0 0 0 0 0
0 0 0 0 0 0 0 0 0 0 0 0 0 0 0 0 0 0 0 0 0 0 0 0 0 0 0 0 0 0 0 0 0 0 0 0 0 0 0 0 0 0 0
0 0 0 0 0 0 0 0 0 0 0 0 0 0 0 0 0 0 0 0 0 0 0 0 0 0 0 0 0 0 0 0 0 0 0 0 0 0 0 0 0 0 0
0 0 0 0 0 0 0 0 0 0 0 0 0 0 0 0 0 0 0 0 0 0 0 0 0 0 0 0 0 0 0 0 0 0 0 0 0 0 0 0 0 0 0
0 0 0 0 0 0 0 0 0 0 0 0 0 0 0 0 0 0 0 0 0 0 0 0 0 0 0 0 0 0 0 0 0 0 0 0 0 0 0 0 0 0 0
0 0 0 0 0 0 0 0 0 0 0 0 0 0 0 0 0 0 0 0 0 0 0 0 0 0 0 0 0 0 0 0 0 0 0 0 0 0 0 0 0 0 0
0 0 0 0 0 0 0 0 0 0 0 0 0 0 0 0 0 0 0 0 0 0 0 0 0 0 0 0 0 0 0 0 0 0 0 0 0 0 0 0 0 0 0
0 0 0 0 0 0 0 0 0 0 0 0 0 0 0 0 0 0 0 0 0 0 0 0 0 0 0 0 0 -0 0 -0 0 0 0 0 0 0 0 0 0 0 0
0 0 0 0 0 0 0 0 0 0 0 0 0 0 0 0 0 0 0 0 0 0 0 0 0 0 0 0 0 0 0 0 0 0 0 0 0 0 0 0 0 0 0
0 0 0 0 0 0 0 0 0 0 0 0 0 0 0 0 0 0 0 0 0 0 0 0 0 0 0 0 0 0 0 0 0 0 0 0 0 0 0 0 0 0 0
0 0 0 0 0 0 0 0 0 0 0 0 0 0 0 0 0 0 0 0 0 0 0 0 0 0 0 0 0 0 0 0 0 0 0 0 0 0 0 0 0 0 0
0 0 0 0 0 0 0 0 0 0 0 0 0 0 0 0 0 0 0 0 0 0 0 0 0 0 0 0 0 0 0 0 0 0 0 0 0 0 0 0 0 0 0
Wind_Speed_500mb
40 29 24 23 22 21 20 19 19 15 12 10 8 8 8 6 4 4 5 5 8 9 9 10 9 8 8 8 8 5 3 9 11 10 11 13 13 14 16 21 22 24 23
37 34 26 23 22 22 21 21 19 17 13 12 11 10 11 11 11 10 8 7 6 6 7 9 10 10 11 12 10 7 7 8 10 14 16 17 16 18 23 27 26 25 24
36 34 31 28 25 23 21 18 19 17 17 15 15 14 12 10 9 12 13 12 11 10 9 10 12 12 11 11 11 13 13 14 15 19 21 22 25 28 31 33 30 31 28
36 35 32 29 25 23 20 19 18 18 18 17 15 15 14 13 15 14 12 12 12 13 14 14 16 17 18 16 14 14 18 21 24 25 26 27 29 31 32 28 25 33 28
41 35 32 31 28 26 25 24 23 24 24 22 22 21 20 20 21 20 20 21 21 22 23 24 23 21 21 21 22 21 22 25 29 31 32 32 31 30 30 29 24 29 34
41 36 33 31 28 28 26 27 27 27 25 24 26 26 26 26 25 24 24 26 28 29 29 29 31 30 30 30 28 25 27 31 34 36 36 36 36 34 33 32 31 31 36
42 39 35 33 31 30 30 30 31 29 29 30 29 28 28 27 25 27 27 29 29 28 28 30 30 30 32 35 37 38 38 38 39 40 42 42 41 39 38 37 36 36 40
38 38 36 34 32 32 34 34 33 33 32 30 29 28 27 24 22 22 23 23 22 20 21 24 26 28 30 33 35 37 39 41 43 46 48 48 45 45 44 43 43 41 43
41 38 35 33 31 32 32 32 33 31 30 25 22 19 16 15 15 16 17 15 15 15 16 18 20 22 24 25 28 32 36 39 44 46 48 48 47 48 46 49 50 48 49
42 39 36 32 28 24 23 25 25 25 23 22 19 17 16 16 15 14 13 12 11 13 14 16 18 20 21 23 26 29 32 35 39 42 45 47 49 50 46 46 51 51 51
47 43 39 34 30 28 27 28 28 26 23 20 18 17 16 15 13 12 13 12 13 15 18 20 22 25 26 28 29 32 34 36 39 42 45 46 47 47 50 48 47 50 53
55 49 44 39 35 34 32 31 27 25 22 20 19 17 16 14 13 14 14 14 15 17 20 21 23 25 26 29 30 33 35 37 39 42 43 46 49 50 50 52 54 56 54
52 51 47 43 41 39 36 33 30 25 23 22 21 17 16 14 12 13 14 15 16 17 20 21 24 26 28 31 32 34 36 38 40 41 42 43 47 50 52 55 56 59 57
55 52 48 47 46 43 40 34 30 26 25 23 20 17 14 13 12 13 13 15 17 18 20 23 26 27 29 32 35 36 37 38 39 40 41 41 44 48 51 54 58 61 63
55 54 53 52 50 46 43 38 33 28 26 23 19 16 14 13 12 12 13 15 18 21 24 26 28 29 30 32 35 37 38 38 38 40 42 41 43 45 48 52 56 61 64
56 58 55 56 52 50 44 37 32 30 28 23 18 15 14 13 13 13 14 16 19 22 26 29 31 32 33 36 37 38 39 39 39 40 43 43 41 42 44 46 49 54 59
62 59 62 59 57 54 44 39 35 33 28 22 17 16 15 14 13 14 15 18 21 25 27 29 33 35 37 38 39 38 39 40 40 42 41 43 47 43 42 45 48 49 50
64 64 62 64 62 56 49 44 41 38 30 24 19 17 15 16 15 16 17 20 24 26 28 32 35 36 38 40 39 38 39 41 41 41 47 41 38 59 62 55 54 58 59
67 65 69 68 65 58 51 48 45 41 34 27 21 19 18 19 19 19 19 22 26 28 30 33 34 38 40 40 40 41 42 43 38 49 38 48 69 58 58 61 73 70 69
74 70 72 73 67 60 55 53 53 49 40 31 24 22 21 21 21 20 21 22 27 28 30 32 34 36 39 42 45 47 49 42 51 38 63 73 56 68 64 67 67 73 73
81 78 79 78 75 68 68 67 62 56 44 34 28 26 22 22 21 21 20 24 25 28 30 32 33 34 36 42 54 60 58 53 45 59 77 64 73 66 60 75 59 63 67
88 85 83 84 80 76 74 69 64 55 45 37 33 30 24 22 23 21 21 24 25 27 29 32 32 31 36 42 52 54 42 62 61 95 78 80 75 58 82 70 76 66 68
93 92 90 87 85 80 75 71 68 60 53 49 43 34 24 23 23 22 23 24 24 25 28 30 28 27 31 39 46 38 24 26 94 81 92 76 53 80 77 88 73 79 79
95 91 90 90 89 82 78 78 75 73 64 52 40 33 28 24 22 23 24 24 24 25 27 27 26 25 30 38 43 46 49 47 37 66 86 84 67 84 90 85 91 90 83
88 94 94 91 88 85 81 80 77 75 63 50 45 41 33 26 23 24 27 25 24 24 26 25 24 25 31 37 42 48 52 53 49 36 81 114 112 85 73 83 95 88 83
87 88 90 93 90 87 83 81 81 77 69 62 54 47 39 31 26 27 28 26 27 26 25 24 23 26 33 39 44 48 50 52 57 41 64 95 98 112 103 80 74 78 76
Wind_Direction_500mb
183 186 185 185 190 193 194 196 204 208 209 210 216 225 230 239 270 315 338 347 359 6 7 1 347 350 345 339 334 347 276 260 268 281 298 312 320 315 304 311 313 315 309
183 180 177 178 190 194 198 203 210 213 217 223 232 245 258 262 265 270 269 273 287 313 328 337 338 334 320 321 305 284 267 255 273 286 289 289 292 294 298 298 298 300 304
177 179 176 178 186 195 200 205 212 215 219 224 232 237 244 253 261 266 261 266 269 274 286 295 298 299 303 307 300 275 272 261 278 285 288 293 295 297 296 296 294 289 288
182 187 190 191 197 205 206 207 211 211 215 221 228 236 254 262 264 260 255 267 275 271 269 276 277 278 278 278 282 277 269 266 275 283 284 292 295 302 305 302 281 284 277
183 190 195 199 205 214 222 224 224 226 231 237 247 259 264 267 268 267 264 265 270 271 265 263 268 274 276 273 270 272 272 272 274 277 277 282 288 296 300 300 290 279 279
185 191 194 201 209 219 224 227 233 237 240 242 243 249 256 263 267 266 263 266 267 266 264 264 265 266 266 267 262 262 267 270 270 273 274 277 281 287 288 290 283 285 278
186 192 196 205 213 221 230 237 239 238 237 238 242 246 250 253 254 255 259 261 263 263 262 265 268 268 265 265 266 265 264 263 269 271 274 278 278 280 281 281 279 278 279
197 197 202 211 220 232 241 241 237 233 234 235 240 244 245 244 243 247 252 257 260 262 267 271 272 271 269 269 269 270 269 268 269 271 272 271 273 274 276 278 278 277 273
197 203 209 217 229 238 240 235 228 226 228 226 221 214 214 221 229 236 245 256 271 276 276 276 279 281 280 279 277 275 274 274 275 275 275 275 274 271 272 273 276 277 275
202 206 213 217 219 215 205 188 186 190 191 196 201 204 209 218 223 234 247 257 268 278 283 287 286 285 285 285 283 283 284 283 281 281 281 279 277 275 269 265 270 271 271
206 208 211 209 205 198 188 185 182 186 193 197 204 210 214 220 230 242 254 264 270 278 283 288 290 292 292 292 293 292 288 287 286 286 287 288 285 281 277 267 262 266 269
209 209 208 207 205 199 194 191 190 191 198 206 212 217 223 227 238 255 266 275 281 285 287 288 287 288 292 292 293 292 294 293 292 291 291 291 290 288 283 278 270 258 258
214 211 210 207 202 199 198 196 197 198 204 209 216 223 230 236 245 262 275 279 281 285 288 292 294 296 297 298 298 301 299 300 299 299 297 294 291 288 286 283 277 270 263
215 215 211 206 202 199 199 201 201 202 207 211 218 225 237 248 250 255 265 277 285 290 292 293 295 297 302 304 306 304 306 305 304 301 298 295 294 292 290 287 284 279 272
215 214 211 207 202 202 202 202 202 205 210 213 220 227 237 245 254 260 271 283 292 297 298 297 299 303 306 306 308 310 311 310 308 307 306 306 303 299 296 292 287 284 279
219 216 211 209 205 206 203 203 203 209 212 218 226 234 240 244 250 260 276 285 293 299 300 305 308 312 315 315 317 317 316 315 317 316 317 315 311 309 305 301 296 291 285
222 218 214 209 206 209 204 203 206 211 217 221 230 236 239 247 255 273 284 294 298 302 307 311 315 317 319 317 318 318 320 321 324 322 321 317 314 313 312 306 303 299 293
224 220 215 210 210 209 204 204 207 211 215 224 230 237 248 259 269 277 288 296 303 307 310 315 315 317 316 316 319 321 322 324 326 320 319 315 317 313 309 303 302 299 292
227 222 217 213 211 210 207 205 210 214 216 224 232 239 251 261 270 276 289 302 307 309 311 313 314 316 319 320 322 323 324 325 321 321 324 319 318 320 317 306 304 300 292
227 225 220 215 211 211 211 208 211 215 216 220 227 238 249 257 264 277 291 302 304 305 307 310 316 319 322 323 324 324 325 327 327 330 327 323 322 317 311 309 310 302 296
226 224 220 214 212 212 210 210 212 216 217 220 224 235 246 255 260 274 288 295 299 300 306 311 313 319 324 328 330 329 335 334 327 327 326 322 319 318 314 313 314 307 302
225 223 220 217 213 215 215 215 216 217 219 223 227 232 243 253 259 270 282 291 296 301 306 309 315 323 327 338 342 343 338 339 325 327 327 325 321 320 315 321 314 311 308
223 222 219 218 215 217 218 215 217 215 219 222 225 229 240 251 261 269 280 289 295 298 302 307 312 320 329 336 341 345 340 320 326 327 328 323 320 314 315 318 315 314 314
221 221 221 219 217 218 220 218 219 219 219 224 229 228 238 249 262 271 279 286 289 293 298 301 307 318 328 331 335 334 331 324 324 320 329 313 318 313 316 317 314 315 315
219 219 219 218 217 219 221 222 222 222 222 227 229 229 235 249 263 269 275 283 286 287 290 293 301 315 322 327 329 326 324 321 322 291 300 315 313 314 307 308 314 316 317
219 219 218 217 217 219 222 223 223 224 222 226 229 230 235 247 260 268 273 280 280 282 284 285 294 308 317 322 324 323 320 317 312 298 294 299 301 309 312 312 308 315 312
Wind_Speed_850mb
40 29 24 23 22 21 20 19 19 15 12 10 8 8 8 6 4 4 5 5 8 9 9 10 9 8 8 8 8 5 3 9 11 10 11 13 13 14 16 21 22 24 23
37 34 26 23 22 22 21 21 19 17 13 12 11 10 11 11 11 10 8 7 6 6 7 9 10 10 11 12 10 7 7 8 10 14 16 17 16 18 23 27 26 25 24
36 34 31 28 25 23 21 18 19 17 17 15 15 14 12 10 9 12 13 12 11 10 9 10 12 12 11 11 11 13 13 14 15 19 21 22 25 28 31 33 30 31 28
36 35 32 29 25 23 20 19 18 18 18 17 15 15 14 13 15 14 12 12 12 13 14 14 16 17 18 16 14 14 18 21 24 25 26 27 29 31 32 28 25 33 28
41 35 32 31 28 26 25 24 23 24 24 22 22 21 20 20 21 20 20 21 21 22 23 24 23 21 21 21 22 21 22 25 29 31 32 32 31 30 30 29 24 29 34
41 36 33 31 28 28 26 27 27 27 25 24 26 26 26 26 25 24 24 26 28 29 29 29 31 30 30 30 28 25 27 31 34 36 36 36 36 34 33 32 31 31 36
42 39 35 33 31 30 30 30 31 29 29 30 29 28 28 27 25 27 27 29 29 28 28 30 30 30 32 35 37 38 38 38 39 40 42 42 41 39 38 37 36 36 40
38 38 36 34 32 32 34 34 33 33 32 30 29 28 27 24 22 22 23 23 22 20 21 24 26 28 30 33 35 37 39 41 43 46 48 48 45 45 44 43 43 41 43
41 38 35 33 31 32 32 32 33 31 30 25 22 19 16 15 15 16 17 15 15 15 16 18 20 22 24 25 28 32 36 39 44 46 48 48 47 48 46 49 50 48 49
42 39 36 32 28 24 23 25 25 25 23 22 19 17 16 16 15 14 13 12 11 13 14 16 18 20 21 23 26 29 32 35 39 42 45 47 49 50 46 46 51 51 51
47 43 39 34 30 28 27 28 28 26 23 20 18 17 16 15 13 12 13 12 13 15 18 20 22 25 26 28 29 32 34 36 39 42 45 46 47 47 50 48 47 50 53
55 49 44 39 35 34 32 31 27 25 22 20 19 17 16 14 13 14 14 14 15 17 20 21 23 25 26 29 30 33 35 37 39 42 43 46 49 50 50 52 54 56 54
52 51 47 43 41 39 36 33 30 25 23 22 21 17 16 14 12 13 14 15 16 17 20 21 24 26 28 31 32 34 36 38 40 41 42 43 47 50 52 55 56 59 57
55 52 48 47 46 43 40 34 30 26 25 23 20 17 14 13 12 13 13 15 17 18 20 23 26 27 29 32 35 36 37 38 39 40 41 41 44 48 51 54 58 61 63
55 54 53 52 50 46 43 38 33 28 26 23 19 16 14 13 12 12 13 15 18 21 24 26 28 29 30 32 35 37 38 38 38 40 42 41 43 45 48 52 56 61 64
56 58 55 56 52 50 44 37 32 30 28 23 18 15 14 13 13 13 14 16 19 22 26 29 31 32 33 36 37 38 39 39 39 40 43 43 41 42 44 46 49 54 59
62 59 62 59 57 54 44 39 35 33 28 22 17 16 15 14 13 14 15 18 21 25 27 29 33 35 37 38 39 38 39 40 40 42 41 43 47 43 42 45 48 49 50
64 64 62 64 62 56 49 44 41 38 30 24 19 17 15 16 15 16 17 20 24 26 28 32 35 36 38 40 39 38 39 41 41 41 47 41 38 59 62 55 54 58 59
67 65 69 68 65 58 51 48 45 41 34 27 21 19 18 19 19 19 19 22 26 28 30 33 34 38 40 40 40 41 42 43 38 49 38 48 69 58 58 61 73 70 69
74 70 72 73 67 60 55 53 53 49 40 31 24 22 21 21 21 20 21 22 27 28 30 32 34 36 39 42 45 47 49 42 51 38 63 73 56 68 64 67 67 73 73
81 78 79 78 75 68 68 67 62 56 44 34 28 26 22 22 21 21 20 24 25 28 30 32 33 34 36 42 54 60 58 53 45 59 77 64 73 66 60 75 59 63 67
88 85 83 84 80 76 74 69 64 55 45 37 33 30 24 22 23 21 21 24 25 27 29 32 32 31 36 42 52 54 42 62 61 95 78 80 75 58 82 70 76 66 68
93 92 90 87 85 80 75 71 68 60 53 49 43 34 24 23 23 22 23 24 24 25 28 30 28 27 31 39 46 38 24 26 94 81 92 76 53 80 77 88 73 79 79
95 91 90 90 89 82 78 78 75 73 64 52 40 33 28 24 22 23 24 24 24 25 27 27 26 25 30 38 43 46 49 47 37 66 86 84 67 84 90 85 91 90 83
88 94 94 91 88 85 81 80 77 75 63 50 45 41 33 26 23 24 27 25 24 24 26 25 24 25 31 37 42 48 52 53 49 36 81 114 112 85 73 83 95 88 83
87 88 90 93 90 87 83 81 81 77 69 62 54 47 39 31 26 27 28 26 27 26 25 24 23 26 33 39 44 48 50 52 57 41 64 95 98 112 103 80 74 78 76
Wind_Direction_850mb
183 186 185 185 190 193 194 196 204 208 209 210 216 225 230 239 270 315 338 347 359 6 7 1 347 350 345 339 334 347 276 260 268 281 298 312 320 315 304 311 313 315 309
183 180 177 178 190 194 198 203 210 213 217 223 232 245 258 262 265 270 269 273 287 313 328 337 338 334 320 321 305 284 267 255 273 286 289 289 292 294 298 298 298 300 304
177 179 176 178 186 195 200 205 212 215 219 224 232 237 244 253 261 266 261 266 269 274 286 295 298 299 303 307 300 275 272 261 278 285 288 293 295 297 296 296 294 289 288
182 187 190 191 197 205 206 207 211 211 215 221 228 236 254 262 264 260 255 267 275 271 269 276 277 278 278 278 282 277 269 266 275 283 284 292 295 302 305 302 281 284 277
183 190 195 199 205 214 222 224 224 226 231 237 247 259 264 267 268 267 264 265 270 271 265 263 268 274 276 273 270 272 272 272 274 277 277 282 288 296 300 300 290 279 279
185 191 194 201 209 219 224 227 233 237 240 242 243 249 256 263 267 266 263 266 267 266 264 264 265 266 266 267 262 262 267 270 270 273 274 277 281 287 288 290 283 285 278
186 192 196 205 213 221 230 237 239 238 237 238 242 246 250 253 254 255 259 261 263 263 262 265 268 268 265 265 266 265 264 263 269 271 274 278 278 280 281 281 279 278 279
197 197 202 211 220 232 241 241 237 233 234 235 240 244 245 244 243 247 252 257 260 262 267 271 272 271 269 269 269 270 269 268 269 271 272 271 273 274 276 278 278 277 273
197 203 209 217 229 238 240 235 228 226 228 226 221 214 214 221 229 236 245 256 271 276 276 276 279 281 280 279 277 275 274 274 275 275 275 275 274 271 272 273 276 277 275
202 206 213 217 219 215 205 188 186 190 191 196 201 204 209 218 223 234 247 257 268 278 283 287 286 285 285 285 283 283 284 283 281 281 281 279 277 275 269 265 270 271 271
206 208 211 209 205 198 188 185 182 186 193 197 204 210 214 220 230 242 254 264 270 278 283 288 290 292 292 292 293 292 288 287 286 286 287 288 285 281 277 267 262 266 269
209 209 208 207 205 199 194 191 190 191 198 206 212 217 223 227 238 255 266 275 281 285 287 288 287 288 292 292 293 292 294 293 292 291 291 291 290 288 283 278 270 258 258
214 211 210 207 202 199 198 196 197 198 204 209 216 223 230 236 245 262 275 279 281 285 288 292 294 296 297 298 298 301 299 300 299 299 297 294 291 288 286 283 277 270 263
215 215 211 206 202 199 199 201 201 202 207 211 218 225 237 248 250 255 265 277 285 290 292 293 295 297 302 304 306 304 306 305 304 301 298 295 294 292 290 287 284 279 272
215 214 211 207 202 202 202 202 202 205 210 213 220 227 237 245 254 260 271 283 292 297 298 297 299 303 306 306 308 310 311 310 308 307 306 306 303 299 296 292 287 284 279
219 216 211 209 205 206 203 203 203 209 212 218 226 234 240 244 250 260 276 285 293 299 300 305 308 312 315 315 317 317 316 315 317 316 317 315 311 309 305 301 296 291 285
222 218 214 209 206 209 204 203 206 211 217 221 230 236 239 247 255 273 284 294 298 302 307 311 315 317 319 317 318 318 320 321 324 322 321 317 314 313 312 306 303 299 293
224 220 215 210 210 209 204 204 207 211 215 224 230 237 248 259 269 277 288 296 303 307 310 315 315 317 316 316 319 321 322 324 326 320 319 315 317 313 309 303 302 299 292
227 222 217 213 211 210 207 205 210 214 216 224 232 239 251 261 270 276 289 302 307 309 311 313 314 316 319 320 322 323 324 325 321 321 324 319 318 320 317 306 304 300 292
227 225 220 215 211 211 211 208 211 215 216 220 227 238 249 257 264 277 291 302 304 305 307 310 316 319 322 323 324 324 325 327 327 330 327 323 322 317 311 309 310 302 296
226 224 220 214 212 212 210 210 212 216 217 220 224 235 246 255 260 274 288 295 299 300 306 311 313 319 324 328 330 329 335 334 327 327 326 322 319 318 314 313 314 307 302
225 223 220 217 213 215 215 215 216 217 219 223 227 232 243 253 259 270 282 291 296 301 306 309 315 323 327 338 342 343 338 339 325 327 327 325 321 320 315 321 314 311 308
223 222 219 218 215 217 218 215 217 215 219 222 225 229 240 251 261 269 280 289 295 298 302 307 312 320 329 336 341 345 340 320 326 327 328 323 320 314 315 318 315 314 314
221 221 221 219 217 218 220 218 219 219 219 224 229 228 238 249 262 271 279 286 289 293 298 301 307 318 328 331 335 334 331 324 324 320 329 313 318 313 316 317 314 315 315
219 219 219 218 217 219 221 222 222 222 222 227 229 229 235 249 263 269 275 283 286 287 290 293 301 315 322 327 329 326 324 321 322 291 300 315 313 314 307 308 314 316 317
219 219 218 217 217 219 222 223 223 224 222 226 229 230 235 247 260 268 273 280 280 282 284 285 294 308 317 322 324 323 320 317 312 298 294 299 301 309 312 312 308 315 312